Regional Weather Roundup
Issued by NWS State College, PA

Home | Current Version | Previous Version | Text Only | Print | Product List | Glossary Off
Versions: 1 2 3 4 5 6 7 8 9 10 11 12 13 14 15 16 17 18 19 20 21 22 23 24 25 26 27 28 29 30 31 32 33 34 35 36 37 38 39 40 41 42 43 44 45 46 47 48 49 50

000
ASUS41 KCTP 072310
RWRCTP

REGIONAL WEATHER ROUNDUP
NATIONAL WEATHER SERVICE STATE COLLEGE PA
600 PM EST SUN FEB 07 2016

Note: "fair" indicates few or no clouds below 12,000 feet with no
significant weather and/or obstructions to visibility.

* = STATION THAT DOES NOT REPORT PRECIPITATION /E.G. RAIN...SNOW...ETC/
    THUNDER OR FOG.

PAZ002>004-007>009-013>016-020>023-029>032-080000-
WESTERN PENNSYLVANIA

CITY           SKY/WX    TMP DP  RH WIND       PRES   REMARKS
ERIE           CLOUDY    47  24  40 S10       29.86F
MEADVILLE      PTCLDY    45  24  43 VRB6      29.87S
FRANKLIN*      PTCLDY    39  23  52 S8        29.91S
NEW CASTLE     FAIR      45  24  43 S3        29.90S
BEAVER COUNTY  NOT AVBL
BUTLER*        CLOUDY    45  21  39 SW3       29.94S
PITTSBURGH INT CLOUDY    48  20  32 SW7       29.90F
PITTSBURGH     CLOUDY    48  22  35 S5        29.90F
INDIANA*       CLEAR     41  27  56 CALM      29.95S
LATROBE        CLEAR     43  25  49 SW6       29.93F
WASHINGTON CO* CLOUDY    46  21  36 S3        29.91F
$$

PAZ004>006-010>012-017>019-024>028-033>037-041-042-045-046-049>053-080000-
CENTRAL PENNSYLVANIA

CITY           SKY/WX    TMP DP  RH WIND       PRES   REMARKS
BRADFORD       CLOUDY    38  23  55 CALM      29.89S
DUBOIS         CLOUDY    40  22  48 SE3       29.90F
CLEARFIELD     CLOUDY    42  22  44 CALM      29.93S
JOHNSTOWN      CLOUDY    40  20  44 CALM      29.90S
ALTOONA        CLEAR     37  23  56 E3        29.93S
STATE COLLEGE  CLEAR     41  23  48 CALM      29.95R
WILLIAMSPORT   CLEAR     37  25  61 CALM      29.97S
SELINSGROVE    CLEAR     36  24  62 NW3       29.97F
FT INDIANTOWN  CLOUDY    36  24  59 N1        29.96F
CAPITAL CITY   CLOUDY    40  22  48 CALM      29.97F
HARRISBURG     CLOUDY    36  25  64 CALM      29.97F
YORK           PTCLDY    36  22  56 CALM      29.97F
$$

PAZ038>040-043-044-047-048-054-055-060>062-067>071-080000-
EASTERN PENNSYLVANIA

CITY           SKY/WX    TMP DP  RH WIND       PRES   REMARKS
SCRANTON       CLEAR     40  23  50 CALM      29.96F
MOUNT POCONO   CLOUDY    36  17  46 E3        29.94F
ALLENTOWN      CLOUDY    40  22  48 N5        29.97F
QUAKERTOWN*    CLOUDY    39  23  52 E3        29.98F
READING        CLOUDY    42  17  36 NE5       29.97F
LANCASTER      CLOUDY    40  22  48 W3        29.97F
COATESVILLE    CLOUDY    39  21  48 E3        29.99R
POTTSTOWN      CLOUDY    40  21  46 CALM      30.00F
BLUE BELL        N/A     36  25  64 CALM      29.98S
DOYLESTOWN     CLOUDY    38  21  50 CALM      29.98F
WILLOW GROVE   NOT AVBL
NORTH PHILA    MOCLDY    42  24  49 E8        30.01S
PHILADELPHIA   MOCLDY    41  23  48 E6        30.00S
$$



USA.gov is the U.S. government's official web portal to all federal, state and local government web resources and services.